Погода в Мокпхо

Южная Корея     34°48′15″N   126°23′08″E
темп.,
°C
ветер,
м/с
пор.,
м/с
влажн.,
%
обл.,
%
осадки,
мм/ч
давл.,
гПа
погр.,
м
27 февраля, сб
сб2700:00+8всв2361100 0.0 102434
03:00+7в4126798 0.0 1024537
06:00+6в51473100 0.0 1025808
09:00+7в81669100 0.0 1027819
12:00+9в9156299 0.0 1028668
15:00+10в9135981 0.0 1025446
18:00+8в61263100 0.0 1027420
21:00+7в31269100 0.0 1028599
28 февраля, вс
вс2800:00+6в31069100 0.0 1028603
03:00+5в51069100 0.0 1027454
06:00+5всв387167 0.0 1027375
09:00+6в367235 0.1 1026331
12:00+7св2481100 0.7 1026155
15:00+8с3378100 0.9 1025183
18:00+8св5686100 0.3 102493
21:00+8св4487100 0.6 102459
1 марта, пн
пн100:00+8в458773 0.0 102250
03:00+9в238787 0.0 102125
06:00+9в3385100 0.0 102027
09:00+10вюв3585100 0.0 102087
12:00+13юв687796 0.0 1017213
15:00+14юв9127793 0.0 1014290
18:00+12юв81288100 0.3 1011250
21:00+10зюз6899100 10.1 1012123
2 марта, вт
вт200:00+7ссз91393100 7.4 1011400
03:00+6ссз111589100 8.4 1012613
06:00+5ссз121783100 0.0 1014970
09:00+4ссз11158188 0.0 1019820
12:00+4ссз10137793 0.0 1021838
15:00+5ссз10126750 0.0 1022890
18:00+4ссз810690 0.0 1025629
21:00+4с56700 0.0 1027341
3 марта, ср
ср300:00+3ссв34690 0.0 1028230
03:00+2св237318 0.0 1028170
06:00+2св337582 0.0 1028128
09:00+4в237587 0.0 1029192
12:00+8ююв4673100 0.0 1028404
15:00+8ююв6875100 0.1 1027385
18:00+8юв5677100 0.0 1026202
21:00+7вюв4582100 0.0 1027110